Долгощелье

Россия / Архангельская область     66°02′30″N   43°27′04″E
темп.,
°C
ветер,
м/с
пор.,
м/с
влажн.,
%
обл.,
%
осадки,
мм/ч
давл.,
гПа
погр.,
м
25 июля, вс
вс2500:00+9зюз51186100 0.0 1006330
03:00+9з61281100 0.0 1006345
06:00+9зюз61392100 0.7 1005494
09:00+11сз577585 1.1 1007996
12:00+9зсз61081100 0.3 1008705
15:00+9зсз61081100 0.3 1011919
18:00+10зсз5875100 0.1 1012956
21:00+9зсз4778100 0.1 1012344
26 июля, пн
пн2600:00+8зюз4979100 0.0 1012310
03:00+9з51278100 0.1 1012442
06:00+9зсз5974100 0.0 10121038
09:00+11сз6860100 0.2 10121509
12:00+10сз71066100 0.1 10141166
15:00+10сз81071100 0.4 10151182
18:00+10сз61174100 0.2 10151132
21:00+9сз81488100 0.3 1015897
27 июля, вт
вт2700:00+8сз81383100 0.0 1016741
03:00+8сз81279100 0.0 1016810
06:00+8сз81275100 0.1 10171005
09:00+8сз81174100 0.1 10171001
12:00+9сз71072100 0.1 10171040
15:00+10ссз7106549 0.1 1017981
18:00+9ссз696820 0.0 1017815
21:00+6ссз358420 0.0 1017131
28 июля, ср
ср2800:00+4зсз239216 0.0 101619
03:00+4зсз3394100 0.0 101437
06:00+7зюз3480100 0.1 1013231
09:00+6ю2396100 1.6 1010149
12:00+7юв229546 0.3 1009114
15:00+12ссв3376100 0.3 1008854
18:00+11с44676 0.0 1008725
21:00+6с3390100 0.0 100735
29 июля, чт
чт2900:00+4сз229513 0.0 100712
03:00+4сз239451 0.0 100640
06:00+7з0181100 0.0 1005143
09:00+9ююв2274100 0.0 1004386
12:00+10ююв3471100 0.0 1003460
15:00+12ююв4565100 0.0 1002507
18:00+14юв456233 0.0 1000611
21:00+11вюв4973100 0.0 999225